Year,Month,Day,Hour,Minute,Value (Times are PST for temperature in C)
2013,07,18,10,44,21.20
2013,07,18,10,45,21.30
2013,07,18,10,46,21.40
2013,07,18,10,47,21.50
2013,07,18,10,48,21.50
2013,07,18,10,49,21.60
2013,07,18,10,50,21.60
2013,07,18,10,51,21.60
2013,07,18,10,52,21.60
2013,07,18,10,53,21.50
2013,07,18,10,54,21.40
2013,07,18,10,55,21.20
2013,07,18,10,56,21.00
2013,07,18,10,57,20.90
2013,07,18,10,58,20.80
2013,07,18,10,59,20.70
2013,07,18,11,00,20.60
2013,07,18,11,01,20.50
2013,07,18,11,02,20.40
2013,07,18,11,03,20.20
2013,07,18,11,04,20.10
2013,07,18,11,05,20.10
2013,07,18,11,06,20.10
2013,07,18,11,07,20.10
2013,07,18,11,08,20.10
2013,07,18,11,09,20.10
2013,07,18,11,10,20.10
2013,07,18,11,11,20.20
2013,07,18,11,12,20.30
2013,07,18,11,13,20.40
2013,07,18,11,14,20.50
2013,07,18,11,15,20.60
2013,07,18,11,16,20.60
2013,07,18,11,17,20.60
2013,07,18,11,18,20.50
2013,07,18,11,19,20.40
2013,07,18,11,20,20.40
2013,07,18,11,21,20.30
2013,07,18,11,22,20.30
2013,07,18,11,23,20.20
2013,07,18,11,24,20.10
2013,07,18,11,25,20.10
2013,07,18,11,26,20.00
2013,07,18,11,27,20.00
2013,07,18,11,28,20.00
2013,07,18,11,29,19.90
2013,07,18,11,30,19.90
2013,07,18,11,31,19.90
2013,07,18,11,32,19.80
2013,07,18,11,33,19.80
2013,07,18,11,34,19.70
2013,07,18,11,35,19.70
2013,07,18,11,36,19.70
2013,07,18,11,37,19.70
2013,07,18,11,38,19.70
2013,07,18,11,39,19.70
2013,07,18,11,40,19.70
2013,07,18,11,41,19.80
2013,07,18,11,42,19.80
2013,07,18,11,43,19.90
2013,07,18,11,44,20.00
2013,07,18,11,45,20.10
2013,07,18,11,46,20.20
2013,07,18,11,47,20.20
2013,07,18,11,48,20.20
2013,07,18,11,49,20.20
2013,07,18,11,50,20.10
2013,07,18,11,51,20.10
2013,07,18,11,52,20.20
2013,07,18,11,53,20.20
2013,07,18,11,54,20.20
2013,07,18,11,55,20.20
2013,07,18,11,56,20.20
2013,07,18,11,57,20.20
2013,07,18,11,58,20.20
2013,07,18,11,59,20.20
2013,07,18,12,00,20.10
2013,07,18,12,01,20.10
2013,07,18,12,02,20.00
2013,07,18,12,03,20.00
2013,07,18,12,04,19.90
2013,07,18,12,05,19.90
2013,07,18,12,06,19.90
2013,07,18,12,07,20.00
2013,07,18,12,08,20.00
2013,07,18,12,09,20.00
2013,07,18,12,10,20.10
2013,07,18,12,11,20.20
2013,07,18,12,12,20.20
2013,07,18,12,13,20.20
2013,07,18,12,14,20.20
2013,07,18,12,15,20.20
2013,07,18,12,16,20.30
2013,07,18,12,17,20.30
2013,07,18,12,18,20.40
2013,07,18,12,19,20.50
2013,07,18,12,20,20.70
2013,07,18,12,21,20.80
2013,07,18,12,22,20.90
2013,07,18,12,23,20.90
2013,07,18,12,24,20.80
2013,07,18,12,25,20.80
2013,07,18,12,26,20.80
2013,07,18,12,27,20.80
2013,07,18,12,28,20.80
2013,07,18,12,29,20.80
2013,07,18,12,30,20.90
2013,07,18,12,31,20.90
2013,07,18,12,32,21.00
2013,07,18,12,33,21.00
2013,07,18,12,34,21.10
2013,07,18,12,35,21.20
2013,07,18,12,36,21.20
2013,07,18,12,37,21.10
2013,07,18,12,38,21.10
2013,07,18,12,39,21.10
2013,07,18,12,40,21.10
2013,07,18,12,41,21.20
2013,07,18,12,42,21.20
2013,07,18,12,43,21.20
2013,07,18,12,44,21.30
2013,07,18,12,45,21.30
2013,07,18,12,46,21.30
2013,07,18,12,47,21.40
2013,07,18,12,48,21.40
2013,07,18,12,49,21.50
2013,07,18,12,50,21.50
2013,07,18,12,51,21.60
2013,07,18,12,52,21.60
2013,07,18,12,53,21.70
2013,07,18,12,54,21.80
2013,07,18,12,55,21.80
2013,07,18,12,56,21.70
2013,07,18,12,57,21.70
2013,07,18,12,58,21.70
2013,07,18,12,59,21.60
2013,07,18,13,00,21.60
2013,07,18,13,01,21.50
2013,07,18,13,02,21.50
2013,07,18,13,03,21.50
2013,07,18,13,04,21.50
2013,07,18,13,05,21.60
2013,07,18,13,06,21.70
2013,07,18,13,07,21.70
2013,07,18,13,08,21.70
2013,07,18,13,09,21.70
2013,07,18,13,10,21.80
2013,07,18,13,11,21.90
2013,07,18,13,12,22.00
2013,07,18,13,13,22.20
2013,07,18,13,14,22.30
2013,07,18,13,15,22.30
2013,07,18,13,16,22.40
2013,07,18,13,17,22.50
2013,07,18,13,18,22.60
2013,07,18,13,19,22.90
2013,07,18,13,20,23.10
2013,07,18,13,21,23.30
2013,07,18,13,22,23.50
2013,07,18,13,23,23.60
2013,07,18,13,24,23.70
2013,07,18,13,25,23.80
2013,07,18,13,26,23.90
2013,07,18,13,27,23.90
2013,07,18,13,28,23.80
2013,07,18,13,29,23.60
2013,07,18,13,30,23.40
2013,07,18,13,31,23.20
2013,07,18,13,32,23.20
2013,07,18,13,33,23.10
2013,07,18,13,34,22.90
2013,07,18,13,35,22.80
2013,07,18,13,36,22.70
2013,07,18,13,37,22.70
2013,07,18,13,38,22.70
2013,07,18,13,39,22.80
2013,07,18,13,40,22.80
2013,07,18,13,41,22.80
2013,07,18,13,42,22.70
2013,07,18,13,43,22.70
2013,07,18,13,44,22.70
2013,07,18,13,45,22.60
2013,07,18,13,46,22.60
2013,07,18,13,47,22.50
2013,07,18,13,48,22.40
2013,07,18,13,49,22.30
2013,07,18,13,50,22.20
2013,07,18,13,51,22.20
2013,07,18,13,52,22.20
2013,07,18,13,53,22.20
2013,07,18,13,54,22.40
2013,07,18,13,55,22.50
2013,07,18,13,56,22.70
2013,07,18,13,57,22.70
2013,07,18,13,58,22.60
2013,07,18,13,59,22.60
2013,07,18,14,00,22.60
2013,07,18,14,01,22.50
2013,07,18,14,02,22.50
2013,07,18,14,03,22.40
2013,07,18,14,04,22.30
2013,07,18,14,05,22.30
2013,07,18,14,06,22.30
2013,07,18,14,07,22.30
2013,07,18,14,08,22.30
2013,07,18,14,09,22.40
2013,07,18,14,10,22.50
2013,07,18,14,11,22.50
2013,07,18,14,12,22.60
2013,07,18,14,13,22.50
2013,07,18,14,14,22.60
2013,07,18,14,15,22.60
2013,07,18,14,16,22.50
2013,07,18,14,17,22.50
2013,07,18,14,18,22.40
2013,07,18,14,19,22.20
2013,07,18,14,20,22.10
2013,07,18,14,21,22.10
2013,07,18,14,22,22.10
2013,07,18,14,23,22.00
2013,07,18,14,24,21.90
2013,07,18,14,25,21.90
2013,07,18,14,26,21.90
2013,07,18,14,27,21.90
2013,07,18,14,28,21.90
2013,07,18,14,29,22.00
2013,07,18,14,30,22.10
2013,07,18,14,31,22.10
2013,07,18,14,32,22.10
2013,07,18,14,33,22.10
2013,07,18,14,34,22.10
2013,07,18,14,35,22.20
2013,07,18,14,36,22.30
2013,07,18,14,37,22.30
2013,07,18,14,38,22.30
2013,07,18,14,39,22.30
2013,07,18,14,40,22.30
2013,07,18,14,41,22.30
2013,07,18,14,42,22.40
2013,07,18,14,43,22.40
2013,07,18,14,44,22.40
2013,07,18,14,45,22.50
2013,07,18,14,46,22.50
2013,07,18,14,47,22.60
2013,07,18,14,48,22.70
2013,07,18,14,49,22.70
2013,07,18,14,50,22.60
2013,07,18,14,51,22.50
2013,07,18,14,52,22.50
2013,07,18,14,53,22.40
2013,07,18,14,54,22.40
2013,07,18,14,55,22.50
2013,07,18,14,56,22.60
2013,07,18,14,57,22.60
2013,07,18,14,58,22.60
2013,07,18,14,59,22.50
2013,07,18,15,00,22.50
2013,07,18,15,01,22.60
2013,07,18,15,02,22.70
2013,07,18,15,03,22.70
2013,07,18,15,04,22.70
2013,07,18,15,05,22.60
2013,07,18,15,06,22.60
2013,07,18,15,07,22.60
2013,07,18,15,08,22.60
2013,07,18,15,09,22.60
2013,07,18,15,10,22.70
2013,07,18,15,11,22.70
2013,07,18,15,12,22.80
2013,07,18,15,13,22.80
2013,07,18,15,14,22.80
2013,07,18,15,15,22.80
2013,07,18,15,16,22.80
2013,07,18,15,17,22.80
2013,07,18,15,18,22.80
2013,07,18,15,19,22.90
2013,07,18,15,20,23.00
2013,07,18,15,21,23.10
2013,07,18,15,22,23.10
2013,07,18,15,23,23.00
2013,07,18,15,24,22.80
2013,07,18,15,25,22.70
2013,07,18,15,26,22.70
2013,07,18,15,27,22.70
2013,07,18,15,28,22.60
2013,07,18,15,29,22.60
2013,07,18,15,30,22.50
2013,07,18,15,31,22.40
2013,07,18,15,32,22.30
2013,07,18,15,33,22.30
2013,07,18,15,34,22.40
2013,07,18,15,35,22.40
2013,07,18,15,36,22.40
2013,07,18,15,37,22.50
2013,07,18,15,38,22.50
2013,07,18,15,39,22.50
2013,07,18,15,40,22.40
2013,07,18,15,41,22.40
2013,07,18,15,42,22.40
2013,07,18,15,43,22.30
2013,07,18,15,44,22.30
2013,07,18,15,45,22.20
2013,07,18,15,46,22.20
2013,07,18,15,47,22.30
2013,07,18,15,48,22.30
2013,07,18,15,49,22.30
2013,07,18,15,50,22.30
2013,07,18,15,51,22.30
2013,07,18,15,52,22.30
2013,07,18,15,53,22.30
2013,07,18,15,54,22.30
2013,07,18,15,55,22.30
2013,07,18,15,56,22.30
2013,07,18,15,57,22.40
2013,07,18,15,58,22.40
2013,07,18,15,59,22.40
2013,07,18,16,00,22.30
2013,07,18,16,01,22.30
2013,07,18,16,02,22.30
2013,07,18,16,03,22.20
2013,07,18,16,04,22.20
2013,07,18,16,05,22.20
2013,07,18,16,06,22.20
2013,07,18,16,07,22.30
2013,07,18,16,08,22.20
2013,07,18,16,09,22.30
2013,07,18,16,10,22.30
2013,07,18,16,11,22.30
2013,07,18,16,12,22.30
2013,07,18,16,13,22.40
2013,07,18,16,14,22.40
2013,07,18,16,15,22.50
2013,07,18,16,16,22.50
2013,07,18,16,17,22.50
2013,07,18,16,18,22.50
2013,07,18,16,19,22.50
2013,07,18,16,20,22.50
2013,07,18,16,21,22.40
2013,07,18,16,22,22.40
2013,07,18,16,23,22.40
2013,07,18,16,24,22.40
2013,07,18,16,25,22.40
2013,07,18,16,26,22.50
2013,07,18,16,27,22.50
2013,07,18,16,28,22.50
2013,07,18,16,29,22.40
2013,07,18,16,30,22.40
2013,07,18,16,31,22.40
2013,07,18,16,32,22.30
2013,07,18,16,33,22.30
2013,07,18,16,34,22.40
2013,07,18,16,35,22.40
2013,07,18,16,36,22.40
2013,07,18,16,37,22.40
2013,07,18,16,38,22.40
2013,07,18,16,39,22.40
2013,07,18,16,40,22.40
2013,07,18,16,41,22.40
2013,07,18,16,42,22.40
2013,07,18,16,43,22.40
2013,07,18,16,44,22.40
2013,07,18,16,45,22.50
2013,07,18,16,46,22.50
2013,07,18,16,47,22.60
2013,07,18,16,48,22.70
2013,07,18,16,49,22.70
2013,07,18,16,50,22.80
2013,07,18,16,51,22.90
2013,07,18,16,52,23.00
2013,07,18,16,53,23.00
2013,07,18,16,54,23.10
2013,07,18,16,55,23.10
2013,07,18,16,56,23.20
2013,07,18,16,57,23.20
2013,07,18,16,58,23.20
2013,07,18,16,59,23.20
2013,07,18,17,00,23.20
2013,07,18,17,01,23.10
2013,07,18,17,02,23.10
2013,07,18,17,03,23.10
2013,07,18,17,04,23.10
2013,07,18,17,05,23.10
2013,07,18,17,06,23.00
2013,07,18,17,07,23.00
2013,07,18,17,08,22.90
2013,07,18,17,09,22.80
2013,07,18,17,10,22.70
2013,07,18,17,11,22.70
2013,07,18,17,12,22.70
2013,07,18,17,13,22.80
2013,07,18,17,14,22.80
2013,07,18,17,15,22.80
2013,07,18,17,16,22.80
2013,07,18,17,17,22.80
2013,07,18,17,18,22.70
2013,07,18,17,19,22.70
2013,07,18,17,20,22.80
2013,07,18,17,21,22.80
2013,07,18,17,22,22.90
2013,07,18,17,23,23.00
2013,07,18,17,24,23.00
2013,07,18,17,25,23.10
2013,07,18,17,26,23.10
2013,07,18,17,27,23.10
2013,07,18,17,28,23.10
2013,07,18,17,29,23.10
2013,07,18,17,30,23.20
2013,07,18,17,31,23.20
2013,07,18,17,32,23.20
2013,07,18,17,33,23.10
2013,07,18,17,34,23.00
2013,07,18,17,35,22.90
2013,07,18,17,36,22.90
2013,07,18,17,37,22.90
2013,07,18,17,38,22.90
2013,07,18,17,39,22.90
2013,07,18,17,40,22.90
2013,07,18,17,41,23.00
2013,07,18,17,42,23.00
2013,07,18,17,43,23.10
2013,07,18,17,44,23.10
2013,07,18,17,45,23.10
2013,07,18,17,46,23.10
2013,07,18,17,47,23.10
2013,07,18,17,48,23.00
2013,07,18,17,49,22.90
2013,07,18,17,50,22.80
2013,07,18,17,51,22.70
2013,07,18,17,52,22.70
2013,07,18,17,53,22.60
2013,07,18,17,54,22.60
2013,07,18,17,55,22.60
2013,07,18,17,56,22.60
2013,07,18,17,57,22.60
2013,07,18,17,58,22.60
2013,07,18,17,59,22.60
2013,07,18,18,00,22.50
2013,07,18,18,01,22.50
2013,07,18,18,02,22.50
2013,07,18,18,03,22.50
2013,07,18,18,04,22.50
2013,07,18,18,05,22.60
2013,07,18,18,06,22.60
2013,07,18,18,07,22.50
2013,07,18,18,08,22.50
2013,07,18,18,09,22.50
2013,07,18,18,10,22.50
2013,07,18,18,11,22.40
2013,07,18,18,12,22.40
2013,07,18,18,13,22.40
2013,07,18,18,14,22.40
2013,07,18,18,15,22.40
2013,07,18,18,16,22.40
2013,07,18,18,17,22.40
2013,07,18,18,18,22.40
2013,07,18,18,19,22.40
2013,07,18,18,20,22.40
2013,07,18,18,21,22.40
2013,07,18,18,22,22.50
2013,07,18,18,23,22.50
2013,07,18,18,24,22.50
2013,07,18,18,25,22.50
2013,07,18,18,26,22.40
2013,07,18,18,27,22.40
2013,07,18,18,28,22.30
2013,07,18,18,29,22.20
2013,07,18,18,30,22.20
2013,07,18,18,31,22.10
2013,07,18,18,32,22.10
2013,07,18,18,33,22.10
2013,07,18,18,34,22.10
2013,07,18,18,35,22.10
2013,07,18,18,36,22.10
2013,07,18,18,37,22.00
2013,07,18,18,38,21.90
2013,07,18,18,39,21.90
2013,07,18,18,40,21.90
2013,07,18,18,41,21.80
2013,07,18,18,42,21.80
2013,07,18,18,43,21.80
2013,07,18,18,44,21.80
2013,07,18,18,45,21.80
2013,07,18,18,46,21.80
2013,07,18,18,47,21.80
2013,07,18,18,48,21.80
2013,07,18,18,49,21.70
2013,07,18,18,50,21.70
2013,07,18,18,51,21.70
2013,07,18,18,52,21.60
2013,07,18,18,53,21.60
2013,07,18,18,54,21.60
2013,07,18,18,55,21.50
2013,07,18,18,56,21.50
2013,07,18,18,57,21.40
2013,07,18,18,58,21.40
2013,07,18,18,59,21.40
2013,07,18,19,00,21.40
2013,07,18,19,01,21.40
2013,07,18,19,02,21.40
2013,07,18,19,03,21.40
2013,07,18,19,04,21.40
2013,07,18,19,05,21.40
2013,07,18,19,06,21.40
2013,07,18,19,07,21.40
2013,07,18,19,08,21.40
2013,07,18,19,09,21.40
2013,07,18,19,10,21.40
2013,07,18,19,11,21.40
2013,07,18,19,12,21.40
2013,07,18,19,13,21.40
2013,07,18,19,14,21.40
2013,07,18,19,15,21.40
2013,07,18,19,16,21.30
2013,07,18,19,17,21.40
2013,07,18,19,18,21.40
2013,07,18,19,19,21.40
2013,07,18,19,20,21.40
2013,07,18,19,21,21.30
2013,07,18,19,22,21.30
2013,07,18,19,23,21.30
2013,07,18,19,24,21.30
2013,07,18,19,25,21.20
2013,07,18,19,26,21.20
2013,07,18,19,27,21.20
2013,07,18,19,28,21.20
2013,07,18,19,29,21.20
2013,07,18,19,30,21.30
2013,07,18,19,31,21.30
2013,07,18,19,32,21.30
2013,07,18,19,33,21.30
2013,07,18,19,34,21.20
2013,07,18,19,35,21.20
2013,07,18,19,36,21.20
2013,07,18,19,37,21.20
2013,07,18,19,38,21.20
2013,07,18,19,39,21.20
2013,07,18,19,40,21.20
2013,07,18,19,41,21.20
2013,07,18,19,42,21.20
2013,07,18,19,43,21.20
2013,07,18,19,44,21.20
2013,07,18,19,45,21.20
2013,07,18,19,46,21.20
2013,07,18,19,47,21.20
2013,07,18,19,48,21.20
2013,07,18,19,49,21.20
